Location: *
(52.2090°N, 4.1550°W)
Time: 07:27:38
(UTC+00:00)

Landsat 4 - Pass Details

Date: 19 July 2019
Orbit: 506 x 524 km, 98.2° (Epoch: 24 August)

Event Time Altitude Azimuth Distance (km) Brightness Sun altitude
Rises 21:53:03 0° 20° (NNE) 2,628 7.8 -10.0°
Reaches altitude 10° 21:55:14 10° 27° (NNE) 1,736 6.8 -10.2°
Maximum altitude 21:58:48 42° 100° (E) 737 4.1 -10.5°
Enters shadow 22:01:42 14° 168° (SSE) 1,476 5.4 -10.8°
